Theta_e
282 282 282 280 280 280 281 280 280 281 282 283 284 284 285 285 285 284 285 285 284 284 284 284 284 284 285 288 290 291 292 292 293 294 294 294 295 295 295 295 295 295 296 296 296 296 296 296 296 296 297 297 297 298 298 298 299 299 299 299 300 300 300 300 300 301 301 301 302 302 303 303 303 303 303 304 305 306 307 308 310 311 313 314 316 317
281 282 281 280 279 279 281 280 280 280 281 282 283 284 284 283 283 284 284 284 284 283 284 284 284 283 282 286 289 291 291 292 292 293 293 294 294 294 294 295 295 295 295 295 296 296 296 296 296 296 296 296 297 297 297 297 298 298 298 298 298 299 299 299 299 299 300 300 300 300 301 301 301 302 302 303 304 305 306 307 308 310 311 313 315 316
280 281 281 280 279 279 280 280 280 280 280 281 282 283 281 281 282 283 283 284 284 283 283 283 283 283 282 284 287 290 291 292 292 292 293 293 293 293 294 294 294 295 295 295 295 295 295 296 296 296 296 296 296 296 296 297 297 297 297 297 297 298 298 298 298 298 298 299 299 299 299 299 300 300 301 302 304 304 305 306 307 308 310 311 314 316
279 280 281 281 280 280 280 280 280 281 282 282 281 281 280 280 282 283 283 283 283 283 283 282 282 283 283 284 286 289 291 291 292 292 292 293 293 293 293 293 294 294 294 294 295 295 295 295 295 295 296 296 296 296 296 296 296 296 296 296 296 296 297 297 297 297 297 297 298 298 298 299 299 300 301 302 303 303 304 305 306 307 308 310 312 314
279 280 281 281 281 280 280 280 281 282 282 282 281 280 280 281 282 282 282 282 282 282 282 282 282 282 283 283 285 288 290 291 291 292 292 292 292 292 293 293 293 294 294 294 294 295 295 295 295 295 295 295 295 296 295 296 296 296 296 296 296 296 296 296 296 296 297 297 297 297 298 298 299 300 300 301 302 303 304 304 305 306 307 308 310 312
279 280 281 280 281 281 281 281 282 282 282 281 280 280 281 281 281 282 282 282 282 282 282 282 282 282 282 283 285 288 290 290 291 291 291 291 292 292 292 293 293 293 293 294 294 294 294 294 294 295 295 295 295 295 295 295 295 295 295 295 295 295 295 295 296 296 296 296 297 297 297 298 299 299 299 300 301 302 303 304 304 305 306 307 308 310
279 280 280 280 280 280 281 281 282 282 281 281 281 281 281 281 280 280 280 280 281 281 282 282 282 281 281 283 285 288 288 289 290 290 290 291 291 292 292 292 292 293 293 293 294 294 294 294 294 294 295 295 295 295 295 295 295 295 294 294 295 295 295 295 295 295 296 296 296 297 297 297 298 298 299 299 300 301 302 303 304 304 305 305 307 308
279 280 279 279 280 280 280 281 281 281 281 281 281 281 281 281 281 280 279 279 279 280 281 282 282 282 281 281 283 285 285 286 287 287 289 289 290 291 291 292 292 292 293 293 293 293 293 294 294 294 294 294 294 294 294 294 294 294 294 294 294 294 295 295 295 295 296 296 296 296 297 297 297 298 298 299 299 300 301 302 303 304 304 305 305 306
280 280 280 279 280 280 281 281 281 280 280 280 280 281 281 280 280 280 280 280 279 280 281 281 282 282 281 281 282 283 285 286 286 286 287 287 288 288 290 291 291 292 292 292 293 293 293 293 294 294 294 294 294 294 294 294 293 293 293 294 294 294 294 295 295 295 296 296 296 296 296 297 297 297 297 298 298 299 300 301 302 303 303 304 304 305
281 282 281 281 282 282 282 282 281 280 279 279 279 279 279 279 280 280 280 280 281 281 281 281 281 282 282 282 282 283 285 286 287 288 289 288 289 289 290 290 290 291 292 292 292 293 293 293 293 293 293 293 293 293 293 293 293 293 293 293 293 294 294 295 295 295 295 296 296 296 296 296 297 297 297 297 298 298 299 300 300 301 302 303 303 304
283 283 283 283 283 283 282 281 281 280 278 278 279 279 279 279 279 279 279 280 280 281 281 281 281 282 282 282 283 283 284 285 285 287 288 289 289 290 290 290 290 290 291 291 292 292 292 292 293 293 293 293 293 293 292 292 292 292 293 293 293 294 294 295 295 295 295 296 296 296 296 296 296 297 297 297 297 298 298 299 299 300 301 301 302 303
283 283 283 283 283 282 281 280 280 279 278 278 279 279 279 279 279 279 279 279 280 281 281 281 281 282 282 282 283 283 283 283 283 284 285 285 286 287 288 288 288 289 289 290 290 291 291 292 292 292 292 292 292 292 292 291 292 292 293 293 293 294 294 294 295 295 295 295 296 296 296 296 296 297 297 297 297 297 297 298 298 299 299 300 301 302
282 282 282 282 281 280 280 279 279 279 278 278 279 279 279 280 280 280 280 280 280 281 281 281 282 282 282 282 282 283 282 282 282 283 283 283 284 285 285 285 286 286 287 287 287 288 290 291 291 291 291 291 291 291 291 291 292 292 293 293 294 294 294 294 295 295 295 295 295 295 296 296 296 297 297 297 297 297 297 297 298 298 299 299 300 301
281 281 281 280 279 279 279 279 279 278 278 278 279 279 280 281 281 281 280 280 281 281 282 281 281 282 282 282 282 282 281 282 282 282 283 283 284 284 284 284 285 285 285 285 285 286 289 289 289 289 290 290 290 290 291 291 292 292 293 293 294 294 294 294 294 295 295 295 295 295 296 296 296 297 298 298 298 297 297 297 297 298 298 299 299 300
280 280 279 279 279 279 279 279 279 278 279 279 280 280 281 281 282 281 281 281 281 282 282 282 282 282 282 282 282 281 281 281 282 282 283 284 285 285 285 284 285 285 285 285 285 286 288 288 287 286 287 288 288 289 290 291 292 293 293 293 293 294 294 294 294 295 295 295 295 295 296 296 297 297 298 298 298 298 298 297 298 298 298 298 299 299
280 280 278 278 278 278 279 279 279 279 279 280 280 281 282 282 282 282 282 281 282 282 282 281 281 281 282 282 282 282 282 282 282 283 284 284 285 286 285 284 284 284 285 285 285 286 286 286 286 286 286 287 289 290 291 291 292 292 293 293 293 294 294 294 294 295 295 295 295 296 296 296 297 297 297 297 298 297 298 297 298 297 298 298 298 298
280 280 279 279 278 278 279 279 279 280 280 281 282 282 283 282 283 283 282 282 282 282 281 281 280 279 280 281 282 282 283 283 283 284 284 284 285 285 285 284 284 284 284 285 285 285 285 285 285 286 286 288 290 291 291 291 292 292 293 293 293 293 294 294 294 295 295 295 295 296 296 296 296 296 296 296 296 296 297 297 297 298 298 298 298 298
280 280 279 278 278 279 279 279 280 281 281 282 283 283 283 284 284 283 283 283 282 281 281 281 280 279 279 279 281 282 284 284 284 284 284 284 284 285 285 284 284 284 284 284 285 285 285 285 285 286 287 289 290 291 291 291 292 292 293 293 293 293 294 294 294 295 295 295 295 295 296 296 296 296 295 295 295 295 296 296 297 298 298 298 298 298
280 280 280 280 280 280 280 281 281 282 282 283 283 283 284 284 284 283 283 283 282 281 281 280 280 279 279 279 281 283 285 285 285 284 283 282 283 283 284 284 284 284 284 284 284 284 284 284 286 287 289 290 290 291 291 291 292 292 292 293 293 293 293 294 294 294 295 295 295 295 295 295 295 295 295 295 295 295 295 296 297 297 298 298 299 299
281 281 280 280 280 281 281 281 282 283 284 284 284 284 283 283 283 283 282 282 282 281 281 280 280 280 280 280 282 284 286 286 285 283 282 282 282 283 283 283 283 283 282 283 283 284 284 284 285 286 289 289 290 291 291 291 292 292 292 292 293 293 293 293 294 294 294 295 295 295 295 295 295 294 294 294 294 295 295 295 296 297 297 298 298 299
281 280 280 280 280 281 281 282 283 284 285 286 285 284 284 283 282 282 281 281 281 281 280 280 280 280 281 282 283 284 286 286 284 282 281 281 282 283 283 282 282 281 281 282 283 284 284 284 284 285 287 289 290 290 291 291 291 292 292 292 292 293 293 293 293 294 294 294 295 295 295 294 294 294 294 294 294 294 295 295 295 296 296 297 298 299
280 280 279 279 280 281 282 283 284 286 287 286 285 284 283 282 281 281 281 281 281 280 280 280 281 282 283 283 284 285 285 284 283 282 281 281 281 282 283 282 281 281 281 282 283 284 283 283 284 285 287 289 290 290 291 291 291 292 292 292 292 292 292 293 293 293 293 293 294 294 294 294 294 294 294 294 294 294 294 295 295 295 296 296 297 298
281 281 281 281 282 283 284 284 286 287 288 286 285 284 283 282 282 281 281 281 281 281 281 282 283 284 284 284 284 284 283 283 283 282 282 280 280 281 282 282 282 281 281 282 283 284 284 284 284 285 287 289 290 290 290 291 291 291 291 291 292 292 292 292 292 292 293 293 293 293 293 293 293 293 294 294 294 294 294 294 295 295 295 296 297 297
282 282 282 283 285 285 286 287 287 287 286 286 285 284 283 283 283 282 282 282 282 283 283 283 283 283 282 282 282 282 282 283 284 283 282 281 281 281 282 283 282 282 282 283 284 284 284 284 284 285 286 288 289 290 290 290 290 291 291 291 291 291 292 292 292 292 292 292 292 292 293 293 293 293 294 294 294 294 294 294 294 295 295 295 296 297
286 286 286 287 288 288 288 287 287 287 286 285 284 283 283 283 284 284 283 283 283 283 283 282 281 280 279 280 281 281 282 283 284 283 282 281 281 281 282 283 283 282 282 283 283 283 283 283 284 284 285 286 288 289 289 290 290 290 290 291 291 291 291 291 291 291 292 292 292 292 292 292 293 293 293 293 294 294 294 294 294 295 295 295 295 296
288 288 288 288 288 288 288 288 288 287 287 286 285 284 283 283 283 283 282 282 282 282 281 280 279 278 279 279 280 280 281 282 283 283 282 282 281 281 282 283 282 282 281 282 282 283 283 283 283 284 284 284 286 288 289 289 289 290 290 290 291 291 291 291 291 291 291 291 292 292 292 292 293 293 293 293 293 293 294 294 294 294 295 295 295 296
287 287 286 286 287 287 287 287 287 287 287 287 286 285 284 283 282 281 280 280 281 280 280 278 278 278 278 278 279 279 280 281 282 282 282 282 281 280 281 282 282 281 281 281 282 283 284 283 283 283 283 283 284 286 287 288 289 289 290 290 290 290 290 290 290 291 291 291 291 291 292 292 292 293 293 293 293 293 293 294 294 294 295 295 295 295
285 285 285 285 285 285 286 286 286 286 286 286 286 286 285 283 281 280 279 280 280 280 279 278 277 277 277 277 277 278 279 280 281 282 282 281 280 280 280 281 281 281 281 281 282 283 284 283 282 282 282 282 283 284 286 287 288 289 289 289 289 289 290 290 290 290 290 291 291 291 291 292 292 292 292 292 293 293 293 294 294 294 294 294 294 295
282 283 283 283 284 284 284 284 284 284 285 285 286 286 285 283 281 280 280 281 281 280 278 278 277 276 276 276 276 277 278 279 280 282 282 281 280 279 280 281 281 281 281 281 281 281 281 281 281 280 281 282 283 283 284 285 286 287 287 288 288 289 289 289 289 290 290 290 291 291 291 291 291 292 292 292 292 293 293 294 294 294 294 294 294 295
278 279 279 280 281 281 281 280 281 283 284 284 285 285 284 283 282 281 282 281 280 278 277 276 276 276 275 275 275 275 276 278 280 282 282 280 279 279 280 281 281 282 282 280 279 278 278 279 280 280 280 282 282 282 282 283 284 284 285 286 287 287 288 288 289 289 290 290 290 290 291 291 291 291 292 292 292 293 293 293 294 293 293 293 293 294
275 276 276 277 277 277 278 278 279 281 282 283 283 284 283 283 283 283 282 280 278 276 275 275 275 275 275 274 274 274 275 277 280 282 282 280 280 280 281 281 281 281 281 279 277 276 276 277 279 280 281 281 281 282 282 282 283 283 283 284 284 285 287 288 288 288 289 289 290 290 290 290 291 291 291 292 292 292 293 293 293 293 293 293 293 294
276 276 276 276 276 276 277 278 278 278 279 280 281 281 282 283 283 281 279 277 276 276 275 275 275 275 275 275 274 274 275 277 280 282 283 281 280 280 280 280 279 279 280 279 278 276 275 276 278 279 280 280 280 281 282 282 282 282 282 283 283 284 286 287 287 288 288 289 289 289 290 290 290 291 291 291 292 292 293 293 293 293 293 292 293 293
276 276 276 276 277 277 277 277 277 277 278 278 279 280 281 281 281 280 278 277 276 276 276 276 275 275 275 275 275 276 276 278 281 282 283 280 279 279 279 278 278 278 279 279 279 278 277 276 277 278 279 280 280 281 281 282 282 282 282 282 282 283 285 286 286 286 287 287 288 288 289 289 290 290 291 291 291 292 292 293 293 293 293 292 293 293
276 276 276 276 276 276 276 275 275 276 277 278 278 279 278 278 278 278 278 278 277 277 277 277 276 276 275 275 275 276 277 279 281 282 282 280 278 277 278 277 277 277 277 277 277 277 277 277 277 277 278 279 280 281 281 282 282 282 282 282 281 282 283 284 284 285 285 286 286 286 287 288 288 289 290 290 291 291 292 293 293 293 294 293 293 293
276 277 276 275 275 275 275 274 275 275 276 277 277 277 277 277 277 277 277 277 278 278 278 278 278 277 276 276 276 276 277 278 280 281 281 280 278 277 277 277 277 277 277 277 276 276 276 277 277 278 278 278 279 280 281 281 281 282 281 282 282 282 283 283 283 284 284 284 284 285 285 286 286 287 288 289 290 291 292 292 293 293 294 294 293 293
276 276 275 274 274 275 275 275 275 275 276 276 276 276 276 276 276 276 277 277 278 279 279 279 279 279 279 278 277 277 277 278 279 280 281 279 278 277 277 277 277 277 277 276 276 276 276 276 277 278 278 278 278 279 280 281 281 282 282 282 282 283 283 283 283 283 283 283 284 284 284 285 286 287 287 289 290 291 292 292 293 293 294 294 294 293
276 276 275 274 274 274 275 275 275 276 275 275 275 275 276 276 276 276 276 277 278 278 279 280 280 280 280 280 279 278 278 278 279 279 280 279 279 278 277 277 278 278 277 277 276 276 276 276 276 277 277 277 277 278 279 280 281 281 281 282 282 282 283 284 284 284 283 284 284 284 285 285 286 287 287 289 290 291 291 292 293 293 294 294 294 294
276 276 276 275 275 275 276 276 277 277 276 276 276 276 276 276 277 277 277 277 278 278 279 279 279 279 280 280 280 279 278 278 278 278 279 279 279 278 277 277 278 278 278 278 277 277 276 276 276 276 276 277 278 279 279 280 280 280 281 282 282 283 283 283 284 284 284 284 285 285 286 286 286 286 287 288 288 289 289 290 291 292 293 293 293 293
276 276 277 277 277 277 277 277 277 277 277 277 277 278 278 278 278 278 278 278 279 278 278 277 277 277 277 277 278 279 279 279 278 278 278 278 278 278 278 277 277 278 278 278 278 278 277 276 276 276 276 277 277 278 279 280 280 280 280 281 282 282 283 284 284 284 285 285 285 285 285 286 285 286 286 287 287 287 288 289 290 291 291 291 291 292
277 277 277 278 278 278 277 278 278 278 278 278 279 279 279 279 279 279 279 279 279 278 277 276 277 277 277 278 279 279 279 279 279 279 278 277 277 277 278 277 277 277 278 278 278 278 278 277 277 277 278 277 278 278 279 279 280 281 281 281 281 281 283 283 284 284 284 285 285 285 285 285 285 286 286 287 287 287 288 288 289 290 291 290 289 289
277 277 278 278 278 279 279 279 278 278 278 279 279 279 279 279 279 278 278 278 278 278 277 277 277 277 277 277 278 278 279 279 279 279 278 276 276 276 277 277 278 278 278 278 278 278 278 278 278 278 278 278 279 279 279 280 281 282 282 281 280 281 282 283 284 284 285 285 285 285 286 286 286 286 287 287 287 288 289 289 289 289 290 290 289 289
278 278 278 278 278 278 278 279 279 279 280 279 279 278 279 278 278 278 277 277 277 277 277 277 277 277 277 277 278 278 279 279 279 278 277 276 275 275 276 277 278 278 278 278 278 278 279 279 279 279 278 279 279 279 279 280 281 281 282 281 281 282 282 283 284 284 285 285 285 286 286 286 286 286 287 287 288 288 289 289 289 289 290 290 290 290
278 278 278 278 278 279 279 279 279 280 280 279 279 278 278 278 278 278 277 277 277 277 277 277 277 277 276 276 277 277 277 276 276 277 277 276 275 275 276 277 278 278 279 278 278 278 279 280 280 279 280 280 280 279 279 280 280 281 281 282 281 281 280 281 283 284 285 285 286 286 286 286 286 287 287 287 288 288 288 288 289 290 290 290 290 290
278 278 278 278 278 279 279 279 279 279 279 279 278 278 277 276 277 278 277 277 277 277 277 277 277 277 276 276 276 276 276 275 274 274 276 277 277 277 277 278 278 279 280 279 279 278 279 279 280 280 281 281 280 280 280 280 280 280 281 281 282 281 281 282 283 284 285 285 285 285 285 286 286 287 287 286 286 286 287 287 288 288 290 290 290 290
278 278 278 279 279 279 279 279 279 279 279 278 278 278 276 276 277 278 277 277 277 277 277 277 277 276 275 275 275 276 276 276 276 275 274 278 280 281 280 280 280 280 280 280 280 279 279 279 279 280 281 281 281 280 280 280 280 280 281 282 282 282 283 283 284 284 285 285 285 285 285 286 286 285 285 284 285 285 286 287 287 288 289 289 290 290
278 278 279 279 279 279 279 279 279 279 279 278 278 278 277 276 277 277 278 277 277 277 277 277 276 275 275 275 275 275 275 275 276 276 276 276 276 277 279 280 281 281 281 281 281 281 281 280 280 280 281 281 281 280 280 280 280 280 280 281 282 282 283 283 284 284 284 284 285 285 285 285 285 285 284 284 284 285 286 287 287 287 288 289 289 290
279 279 279 279 279 279 279 279 279 279 278 278 278 278 278 278 277 278 278 278 277 277 277 277 276 275 275 275 275 275 275 275 275 276 276 277 277 277 278 280 281 282 282 282 281 281 281 281 281 281 281 280 279 279 279 280 280 280 280 281 281 282 282 283 283 284 284 284 284 284 285 285 284 284 284 284 284 285 286 287 287 288 288 289 289 289
279 279 279 279 279 279 279 279 279 278 278 278 278 279 279 279 279 278 278 278 278 277 277 276 276 275 275 275 275 275 275 275 275 275 276 276 277 278 279 280 281 281 281 282 282 282 282 282 282 282 281 280 279 278 279 279 280 280 280 281 281 282 282 282 283 284 284 284 284 284 284 284 284 284 284 284 284 285 285 286 288 288 289 289 289 289
279 279 279 279 279 278 278 278 278 278 278 278 278 278 279 279 280 280 278 278 277 277 276 276 275 275 275 275 275 276 276 275 275 275 276 276 277 277 278 279 280 280 280 280 280 281 281 281 282 282 282 281 279 279 279 279 279 280 281 281 282 282 282 282 283 283 283 283 283 283 284 284 284 284 284 284 284 284 285 286 287 288 288 288 288 288
280 279 279 279 279 278 278 278 278 278 278 278 278 278 278 279 279 278 278 278 277 277 276 276 276 275 275 275 275 275 275 275 275 275 275 276 277 278 278 278 278 278 278 278 278 278 278 278 280 281 283 283 282 281 280 280 280 281 281 281 281 281 282 282 282 283 283 283 283 283 284 284 285 285 285 284 284 284 285 285 287 287 288 287 288 289
280 280 280 279 279 279 279 279 279 279 279 279 279 279 278 278 278 278 277 277 277 277 277 276 276 276 275 275 275 275 275 275 275 275 275 276 277 278 278 278 278 277 276 276 276 276 276 276 276 278 280 283 284 284 282 281 281 281 281 280 280 281 281 282 282 283 283 283 283 283 283 284 284 284 284 284 284 284 284 285 286 287 287 288 289 289
Wind_Speed
2 2 3 3 3 3 3 3 3 4 5 5 6 6 6 6 6 6 8 8 7 7 7 7 7 8 10 13 17 19 21 21 22 22 23 23 24 24 25 25 25 24 24 24 24 24 24 24 24 24 24 24 24 24 25 25 25 25 26 26 26 27 27 28 28 28 29 29 29 29 28 28 27 27 27 28 28 29 30 31 31 30 30 29 28 27
2 2 2 2 2 2 3 3 3 4 5 6 6 7 7 6 6 6 6 6 6 6 6 7 7 7 8 10 14 18 19 20 21 21 22 22 23 24 24 24 24 24 24 24 24 24 25 25 25 25 25 25 25 25 25 25 25 25 25 25 26 26 26 27 27 28 28 28 28 28 28 28 27 27 27 28 28 29 29 30 30 30 30 29 28 28
2 2 3 2 2 2 3 4 3 4 4 5 6 6 6 6 6 6 6 6 6 6 6 6 6 7 7 8 12 16 18 20 20 21 21 22 23 23 23 23 24 24 24 24 24 25 25 25 25 26 26 26 25 25 25 25 25 25 25 25 25 25 25 26 26 27 27 27 28 28 28 28 28 27 28 28 28 28 29 29 29 29 30 29 29 28
2 2 3 2 2 2 3 3 4 4 4 5 6 6 6 5 5 5 5 5 5 5 6 6 6 6 6 7 10 14 17 19 20 21 21 22 22 22 23 23 23 23 23 24 24 25 25 25 26 26 26 26 26 26 26 26 25 25 25 25 24 24 25 25 25 26 26 27 27 27 27 28 28 28 28 28 28 28 28 28 28 28 29 29 29 29
2 2 3 2 2 2 3 3 4 4 5 5 5 5 5 4 5 5 5 5 5 5 5 5 5 6 6 6 8 12 17 19 20 21 21 22 22 22 22 22 22 22 23 24 24 25 25 25 26 26 26 26 26 26 26 26 26 25 25 25 24 24 24 25 25 25 26 26 27 27 27 28 28 28 28 28 28 28 28 28 28 28 28 29 29 29
2 2 2 2 2 3 3 3 4 4 4 4 4 4 4 4 4 4 4 4 5 5 4 4 5 5 5 6 8 12 16 18 19 20 21 21 21 21 21 21 22 22 23 24 24 25 25 26 26 26 26 26 27 26 26 26 26 25 25 25 24 24 24 25 25 25 25 26 26 27 27 28 28 29 29 29 29 29 28 28 28 27 27 28 28 29
2 2 2 2 2 2 3 3 3 4 4 4 4 4 4 4 4 4 4 4 4 4 4 4 4 4 5 6 8 11 13 15 17 18 19 20 20 20 20 21 21 22 23 23 24 25 25 26 26 26 27 27 27 27 26 26 25 25 25 24 24 24 25 25 25 25 25 26 26 27 27 28 28 29 29 29 29 29 29 28 28 27 27 27 28 28
3 3 2 2 2 3 3 3 3 3 3 4 4 4 4 3 3 3 3 3 3 3 4 4 4 4 4 5 6 8 8 10 11 12 14 15 16 17 18 19 21 21 22 23 24 24 25 26 26 27 27 27 27 27 26 26 25 25 25 24 24 25 25 25 25 25 26 26 26 26 27 28 28 29 29 30 30 29 29 29 28 28 27 27 27 27
4 3 3 3 3 3 3 3 3 3 3 3 3 4 4 4 4 3 3 3 3 3 3 4 4 5 4 4 4 5 7 8 8 9 10 10 11 12 15 17 19 20 21 22 23 24 25 26 26 27 27 27 27 27 26 25 25 25 24 25 25 25 25 25 26 26 26 26 26 27 27 27 28 29 29 30 30 30 30 29 28 28 27 27 27 27
4 4 4 3 3 3 3 3 3 2 2 2 2 3 3 4 5 5 5 5 4 3 3 4 5 6 5 5 4 5 7 8 10 12 13 12 13 14 15 15 16 17 20 21 22 24 24 25 26 26 27 27 27 26 26 25 25 25 25 25 25 25 25 26 26 26 27 27 27 27 27 28 28 28 29 30 30 30 30 29 29 28 27 27 27 27
5 5 5 4 3 3 3 3 3 2 2 2 2 2 2 2 4 6 7 7 6 5 4 4 4 5 6 5 5 5 6 7 8 9 12 13 15 16 16 15 15 17 19 20 21 22 23 24 25 26 26 26 26 26 25 25 25 25 25 25 25 26 26 26 27 27 27 27 28 28 28 28 28 29 29 29 30 30 30 30 29 28 28 27 27 27
5 5 4 4 4 3 3 3 3 2 2 2 3 3 3 2 3 4 6 8 8 7 7 5 4 4 5 5 5 5 5 5 5 6 6 8 9 10 10 11 12 13 15 16 17 19 21 22 23 24 24 24 24 24 24 24 24 25 25 26 26 26 27 27 27 28 28 28 28 28 28 28 29 29 29 30 30 30 30 30 29 29 28 27 27 27
5 4 4 4 3 3 3 3 3 3 3 3 4 4 4 4 3 3 4 6 7 7 7 7 6 5 4 4 4 4 4 4 5 5 5 5 5 5 6 6 7 7 9 10 10 12 16 19 20 21 21 22 23 23 24 24 24 25 26 26 27 27 27 28 28 28 28 28 28 28 28 29 29 29 30 30 30 30 30 30 30 29 29 28 28 27
5 4 4 4 4 3 3 3 3 3 3 3 3 4 4 4 4 4 4 5 6 6 6 7 7 6 4 4 3 3 3 4 4 5 5 5 5 4 5 5 6 6 6 7 7 8 12 13 14 15 18 19 20 21 22 23 24 26 26 27 27 28 28 28 28 28 29 29 28 28 28 29 29 29 30 30 30 30 29 29 29 29 29 29 28 28
5 5 5 5 4 4 4 4 4 4 4 4 4 4 4 4 4 5 5 7 7 7 7 7 8 7 4 3 3 3 3 3 4 6 7 7 6 5 5 6 6 6 6 7 8 8 10 10 9 10 12 14 16 18 21 22 25 26 27 28 28 28 29 29 29 29 29 28 28 28 28 28 29 29 29 29 29 29 28 28 29 29 29 29 29 28
4 4 4 5 4 4 4 4 4 4 4 4 4 4 5 5 5 6 6 7 7 7 7 8 9 8 5 3 3 3 4 4 5 7 9 9 7 5 5 6 7 7 6 7 7 7 7 7 8 9 10 14 18 21 24 25 26 27 28 28 29 29 29 29 28 28 28 28 28 28 28 28 28 29 29 28 28 27 27 27 28 28 29 29 29 28
4 4 5 5 5 5 4 3 4 4 5 5 4 4 5 5 6 6 6 6 6 6 6 7 8 8 7 5 4 3 4 5 6 8 9 10 8 6 5 6 7 8 7 7 7 7 7 7 7 8 9 14 19 23 25 26 27 28 28 29 29 29 29 29 28 28 27 27 27 27 27 28 28 28 29 28 28 27 27 27 28 28 29 29 29 29
4 4 4 4 4 4 4 4 4 5 5 5 5 5 4 4 5 5 5 5 6 6 7 7 6 6 7 7 6 5 5 6 7 8 9 10 9 7 5 5 6 7 7 7 6 6 6 7 7 9 11 18 22 24 26 26 27 28 28 29 29 29 29 29 28 28 27 26 26 26 26 27 28 28 29 28 28 28 27 27 28 28 29 29 29 29
4 4 4 5 5 5 4 4 5 6 5 5 5 5 5 5 5 5 5 5 6 7 8 8 7 7 7 8 8 7 6 6 7 8 9 10 10 8 5 5 6 6 6 7 6 6 6 7 9 12 16 20 23 24 26 27 27 28 29 29 29 29 29 29 29 28 27 26 26 25 26 27 28 28 29 29 28 28 27 27 28 28 29 30 30 30
5 4 4 5 5 6 6 6 6 6 6 6 5 5 6 5 5 5 5 6 6 6 6 7 8 8 7 9 9 8 6 6 6 7 8 10 10 8 6 5 6 6 7 7 6 6 7 6 8 11 16 19 22 24 26 27 27 28 29 29 29 29 29 29 28 28 27 27 26 26 26 27 28 29 29 29 28 28 27 27 27 28 29 30 30 30
5 5 4 3 4 5 5 5 6 6 7 6 6 5 5 5 5 6 6 6 7 7 7 7 8 8 7 9 9 8 6 6 6 7 7 8 8 8 5 5 5 6 7 7 7 6 6 6 6 8 11 17 21 24 26 27 28 28 28 29 29 29 29 29 28 28 27 27 27 27 27 28 29 29 29 29 28 28 27 27 27 27 28 30 30 31
4 5 4 4 4 5 7 7 7 7 7 6 5 4 4 5 6 7 7 7 8 8 8 8 8 8 8 9 9 7 5 5 5 6 6 8 8 8 5 4 5 5 7 6 6 6 5 5 6 7 11 18 22 25 26 27 28 28 28 29 29 29 29 29 28 28 28 28 28 29 29 30 30 30 29 29 28 28 27 27 27 27 28 29 30 31
5 5 5 5 6 6 7 7 6 6 5 5 5 4 4 5 6 7 8 7 8 8 8 8 8 8 8 8 8 7 5 5 5 5 5 8 8 7 5 4 5 6 6 7 7 7 6 6 7 8 12 18 22 24 26 27 27 28 28 29 29 29 29 29 29 29 29 30 30 30 31 31 30 30 29 29 28 28 28 28 28 28 28 29 30 31
6 6 6 5 5 5 5 5 4 4 4 4 4 4 4 5 5 6 6 6 7 7 7 8 8 8 7 7 7 7 5 4 4 4 4 6 7 7 5 5 6 7 8 8 8 8 8 8 8 8 10 16 20 23 26 27 27 28 28 29 29 29 29 29 29 30 30 31 31 31 31 31 30 30 29 29 28 28 28 28 28 28 28 29 30 31
4 4 4 4 6 7 7 7 8 8 8 7 6 5 5 6 7 7 6 6 6 7 7 8 8 8 7 8 8 7 5 4 3 3 4 5 6 7 6 6 7 8 9 8 8 8 8 9 9 9 9 12 17 22 25 26 27 28 28 28 29 29 29 30 30 31 31 32 32 31 31 30 30 29 29 29 28 29 29 29 29 28 28 29 30 31
8 8 9 11 14 16 17 17 17 16 16 12 9 7 6 6 6 6 6 6 6 6 7 8 8 8 7 7 7 6 5 4 3 3 4 5 6 7 6 5 6 7 9 8 8 8 9 10 9 9 8 10 14 19 23 25 27 27 28 28 29 29 30 31 31 32 32 32 31 31 30 30 29 29 29 29 29 29 29 29 29 28 28 28 29 29
14 15 17 18 19 20 20 20 20 20 19 17 14 11 8 6 6 6 6 6 6 6 7 8 8 8 8 7 7 7 6 5 5 4 4 5 6 7 6 5 6 7 9 9 8 8 10 10 9 9 8 9 11 14 20 22 24 26 27 28 29 29 30 31 31 31 31 31 31 30 30 29 29 29 29 29 29 29 30 30 29 28 27 26 24 23
15 16 17 17 18 18 18 18 17 17 17 17 16 15 11 7 6 6 6 6 6 6 7 7 8 8 8 8 8 7 8 6 6 5 4 5 5 6 6 6 6 7 8 8 8 9 10 9 8 8 8 8 9 11 15 19 21 23 25 26 28 29 30 30 31 30 30 30 30 29 29 29 29 29 29 29 29 29 29 30 29 27 25 21 17 14
12 14 15 15 15 15 15 15 14 15 15 15 15 14 10 6 5 5 6 5 5 6 6 7 8 8 8 9 9 8 8 7 6 5 4 5 5 6 6 6 6 6 6 7 7 8 8 7 6 6 7 9 9 9 10 14 16 18 20 23 26 27 28 29 29 29 29 29 29 29 29 29 29 29 29 29 29 29 29 29 28 24 18 15 13 12
8 9 9 10 11 11 11 9 10 11 13 14 14 12 9 5 4 4 5 4 5 5 7 7 8 8 8 9 9 8 7 5 4 4 4 5 6 6 7 7 6 5 5 6 6 7 7 6 5 5 6 8 8 8 8 9 10 11 13 17 20 22 25 26 27 27 27 27 27 28 28 28 28 29 29 29 29 29 29 29 26 20 13 11 11 12
5 6 5 6 6 6 6 6 6 7 9 10 11 10 7 5 4 3 3 4 4 5 6 7 8 8 8 7 7 7 5 4 5 5 5 5 6 6 7 7 6 6 5 5 6 7 8 7 6 6 6 7 8 8 8 9 9 9 10 11 13 16 20 23 24 24 24 25 26 26 27 27 28 28 28 28 28 28 28 28 25 19 12 11 11 11
5 5 5 5 4 4 4 4 4 4 5 6 6 6 6 5 4 3 3 3 3 4 5 7 8 8 8 7 7 7 6 5 6 7 7 6 5 6 7 7 7 7 6 6 6 6 7 7 7 7 7 7 8 8 9 9 9 8 9 9 10 13 17 19 20 20 20 21 23 24 25 26 26 27 27 27 27 27 27 28 25 20 13 11 11 11
5 5 4 5 4 4 4 4 4 3 4 4 4 4 5 4 4 4 3 3 3 4 5 7 8 8 8 8 8 8 7 6 7 8 9 7 6 6 7 8 8 8 8 7 7 6 7 7 8 8 8 8 8 7 8 9 9 9 8 8 9 11 14 15 15 15 15 17 18 19 21 23 24 24 25 25 26 26 26 27 25 22 17 13 11 11
5 5 5 5 4 4 4 4 3 3 4 4 4 4 4 4 4 4 4 4 4 4 5 6 7 8 8 8 8 8 7 7 7 9 10 7 6 6 7 8 8 8 8 7 7 6 7 8 9 8 8 8 7 7 7 8 8 8 7 7 7 8 11 11 11 11 12 13 13 13 15 16 18 19 21 22 23 24 25 26 26 25 23 17 13 11
5 5 5 4 4 4 4 4 4 4 4 4 4 4 4 4 4 4 4 4 4 5 5 6 7 8 8 9 9 9 8 7 8 9 10 8 7 6 7 7 8 8 8 8 7 6 6 8 9 9 9 8 8 7 7 7 7 7 6 7 7 7 8 8 9 10 11 11 10 10 10 10 11 13 15 17 20 22 25 26 26 26 25 21 18 14
5 5 5 4 4 4 4 4 4 4 4 4 4 4 4 4 4 4 4 5 5 6 7 7 7 7 8 8 9 9 9 8 9 10 10 9 8 7 7 7 7 8 8 8 8 7 7 9 10 10 10 9 9 8 7 7 7 7 7 8 8 8 8 8 8 8 8 9 10 10 9 9 9 10 11 16 20 22 25 25 25 25 24 22 20 18
4 5 4 4 4 4 4 4 4 4 4 4 4 4 4 4 4 5 5 5 6 6 7 8 8 9 10 9 9 10 10 9 10 10 11 10 9 8 7 7 8 8 8 9 9 9 8 9 10 10 10 9 8 8 8 8 8 8 9 9 9 8 9 8 8 7 7 9 9 9 9 9 9 10 11 16 18 20 22 22 22 21 21 21 21 21
5 5 5 4 4 4 4 5 5 5 4 4 4 4 4 5 5 5 5 6 6 7 7 7 8 9 11 12 12 11 11 11 12 13 13 11 9 8 8 8 8 8 8 8 8 9 9 9 9 10 9 9 9 9 10 9 9 10 10 10 10 9 9 8 8 7 7 8 9 10 11 10 9 9 10 11 12 12 13 13 14 16 17 17 18 19
5 5 5 5 5 4 4 5 5 5 5 5 5 5 5 5 6 6 5 6 6 7 7 7 7 8 10 11 13 13 13 13 13 13 13 11 9 8 8 8 9 9 8 8 8 8 9 9 9 9 9 9 9 10 9 9 10 10 11 11 10 10 9 8 8 7 7 8 9 10 10 9 8 8 8 8 8 9 9 10 10 11 12 11 12 15
5 5 5 6 5 5 5 6 6 6 5 6 6 6 6 6 6 5 6 6 6 6 6 7 7 8 9 10 11 12 12 11 11 11 10 8 7 7 7 8 8 9 9 8 8 8 9 9 9 10 10 9 9 10 9 9 10 11 12 10 9 9 10 10 9 8 7 7 8 8 8 8 8 8 8 8 8 8 8 8 8 9 10 9 8 9
6 6 5 6 6 6 6 6 6 6 6 6 6 5 5 5 5 5 5 5 5 5 5 6 7 7 8 8 9 10 10 10 10 10 8 8 8 8 7 8 8 8 8 9 9 8 9 9 10 10 10 10 10 11 11 11 12 13 13 11 10 10 11 12 11 9 8 7 7 8 9 9 9 9 9 9 8 7 7 8 9 9 9 7 7 7
7 6 6 6 6 6 6 6 6 6 6 5 5 5 5 5 5 5 6 6 5 5 5 5 6 7 9 8 8 8 8 8 8 9 9 9 9 9 8 8 8 8 8 9 9 9 9 9 10 10 10 10 10 10 10 11 11 12 12 11 11 12 12 11 9 8 8 8 8 8 9 9 9 9 9 9 8 7 8 8 9 10 10 8 6 6
6 6 6 6 6 6 7 7 7 6 5 5 5 5 5 4 4 5 6 6 6 7 7 6 7 8 9 9 8 7 6 6 6 7 8 8 9 9 9 9 9 8 8 8 9 9 9 10 10 10 10 10 10 10 11 11 11 11 11 11 11 10 8 8 8 8 8 8 8 8 8 8 8 8 9 9 8 8 8 9 10 10 10 8 7 7
6 6 6 6 6 6 6 6 5 5 5 5 5 5 4 4 4 5 6 6 6 7 7 6 6 7 8 9 9 8 7 5 5 6 7 9 9 9 9 10 10 9 9 8 8 9 9 10 10 10 10 9 9 10 10 10 11 11 10 10 10 9 8 8 9 10 10 9 7 7 7 8 8 9 9 8 8 8 7 7 7 7 8 7 7 7
6 6 6 5 5 6 6 6 6 5 5 5 6 6 4 4 4 5 5 5 6 6 6 6 6 7 7 8 8 8 8 7 6 5 6 8 10 11 10 9 9 9 9 8 8 8 8 9 10 10 9 9 9 10 10 10 11 11 11 11 11 10 10 10 10 10 9 9 9 8 8 8 9 9 9 8 8 7 7 7 7 7 7 7 7 7
6 6 6 5 5 6 7 7 6 6 6 6 6 6 4 4 4 4 5 6 6 6 6 5 6 6 8 8 9 8 8 8 8 7 6 5 5 6 7 8 8 8 7 8 8 8 9 9 10 10 10 9 10 10 10 10 10 10 11 11 11 10 10 10 10 9 9 9 9 9 9 9 8 9 9 9 8 8 7 7 7 7 7 7 7 7
6 6 6 6 6 6 6 6 6 6 6 6 6 6 5 4 4 4 5 5 5 5 6 6 6 6 8 8 8 8 9 9 10 9 8 7 6 6 6 6 7 7 7 7 8 9 9 10 10 10 10 10 10 10 10 9 9 10 10 10 10 10 9 9 9 8 8 8 9 9 9 9 9 9 10 9 9 8 7 7 7 7 7 7 6 6
6 7 7 7 7 7 7 7 6 6 7 7 7 6 5 5 5 5 5 5 5 5 6 6 6 7 8 8 8 8 9 10 10 10 10 9 8 7 7 7 7 7 7 8 9 10 10 10 11 10 10 10 10 10 10 10 9 9 9 9 9 10 10 10 9 8 8 8 8 9 8 8 8 9 10 9 9 8 8 8 7 6 6 6 6 6
6 7 7 7 7 7 7 7 7 7 7 7 7 6 5 6 7 7 6 5 5 5 5 6 7 8 8 8 8 8 9 9 9 10 10 9 8 8 7 7 7 7 7 8 8 8 8 9 10 10 9 9 10 10 11 10 9 9 8 8 9 9 9 9 9 8 8 8 9 9 8 8 7 8 8 9 9 9 9 8 7 7 6 5 5 5
7 7 7 7 7 7 7 7 7 7 8 8 8 7 6 5 5 4 4 4 4 5 5 6 7 8 8 8 8 8 9 9 9 9 9 9 8 8 8 8 8 8 8 8 8 7 6 6 6 8 9 10 10 10 9 9 9 8 8 8 7 7 8 9 8 8 7 8 9 10 10 8 7 7 7 8 9 9 9 8 8 7 6 5 5 6
7 7 7 7 7 7 7 7 7 8 8 8 8 7 7 6 5 4 4 4 5 5 6 6 7 7 8 8 8 9 9 9 9 10 10 9 8 8 9 8 8 8 9 9 8 7 6 6 6 6 6 9 10 9 7 7 8 8 8 6 6 6 6 7 7 7 8 9 9 10 9 8 7 6 6 7 8 9 9 9 8 8 7 6 6 7
Wind_Direction
302 307 309 323 324 315 303 303 314 323 324 326 327 327 328 331 329 326 326 324 320 316 315 312 311 310 310 313 316 318 319 320 321 322 323 324 324 325 325 325 325 325 325 326 327 327 328 328 328 328 327 327 327 326 326 325 325 324 323 322 321 320 319 318 317 316 315 314 313 313 313 313 313 314 314 314 314 314 314 315 314 312 309 304 298 294
305 305 305 317 319 312 301 304 314 324 325 324 324 324 325 324 322 319 317 313 309 306 305 304 303 303 302 303 309 312 314 316 317 318 320 321 321 321 322 322 322 322 323 323 324 325 325 325 325 325 325 325 325 325 324 324 323 323 322 321 320 320 319 318 316 315 314 313 312 311 310 309 308 308 308 309 309 310 312 313 314 314 313 309 303 297
309 309 305 308 307 305 302 310 316 320 319 316 314 314 314 314 313 312 310 308 304 301 298 297 298 298 297 297 304 309 311 313 315 316 317 318 318 318 318 318 319 319 320 321 321 322 323 323 323 323 323 323 323 323 323 322 322 321 321 320 320 319 318 317 316 315 314 312 311 309 308 306 305 304 304 305 306 307 309 310 312 313 314 312 307 302
304 307 309 310 305 299 297 308 312 313 311 305 303 302 302 303 302 301 300 299 298 296 293 290 291 292 294 293 299 304 308 311 313 315 316 316 316 315 315 316 316 317 318 319 319 320 320 320 320 320 321 321 321 321 321 321 321 320 320 319 319 318 317 317 316 315 313 312 310 309 307 305 304 303 302 303 303 304 306 308 310 311 313 312 309 305
298 301 308 314 312 304 298 303 305 304 302 298 295 293 293 291 291 292 292 292 291 291 291 288 287 287 290 292 297 302 307 310 312 314 314 313 313 313 313 314 314 315 316 317 317 317 318 318 318 318 318 319 319 319 320 320 320 319 319 318 318 317 317 316 315 314 313 312 311 309 307 306 304 303 302 301 301 302 303 305 307 309 311 311 309 307
292 291 304 308 306 303 301 301 300 299 297 293 288 285 283 282 284 287 291 292 291 291 290 288 285 284 285 287 295 301 306 310 311 312 311 311 310 311 311 312 313 314 314 315 315 315 315 315 315 316 316 317 317 318 318 318 318 318 318 318 317 317 316 315 315 314 313 312 310 309 308 306 305 304 302 301 300 300 301 302 304 306 307 308 308 307
292 289 297 294 290 288 291 291 290 290 291 293 292 290 286 285 284 285 285 288 290 292 292 289 287 285 284 285 293 300 305 307 308 308 308 308 308 308 309 310 311 312 313 313 313 313 313 313 313 314 314 315 316 316 317 317 317 317 317 317 316 316 315 314 314 313 312 311 310 309 308 307 305 304 303 301 300 299 299 299 301 302 304 305 306 306
298 297 293 286 283 282 281 278 275 274 275 287 296 302 302 300 295 289 285 285 287 292 297 298 296 294 291 290 294 298 302 303 304 304 304 304 304 305 306 307 309 310 310 311 311 311 311 311 311 312 313 314 314 315 316 316 316 316 316 315 315 314 314 313 312 312 311 310 309 309 308 307 306 305 303 302 300 299 297 297 298 299 301 302 303 304
295 296 290 278 278 284 289 283 274 265 264 277 291 301 308 309 308 305 302 300 297 298 302 306 307 305 301 298 297 297 297 298 298 299 300 300 301 303 304 306 307 308 308 308 309 309 309 309 310 310 311 312 313 314 314 315 315 315 314 314 314 313 312 312 311 311 310 310 309 308 308 307 306 304 303 302 300 298 297 296 296 297 298 299 300 301
292 295 293 282 278 282 293 296 291 278 265 269 276 283 295 306 313 316 317 314 311 308 305 309 309 310 308 304 300 297 297 296 296 296 297 297 299 301 302 303 305 306 306 306 306 307 307 307 308 309 310 311 312 312 313 314 314 313 313 312 312 312 311 311 310 310 310 309 309 308 307 306 305 304 303 301 300 298 297 295 294 294 295 296 297 298
302 301 300 298 295 293 293 297 298 296 296 293 283 275 273 297 313 319 320 319 318 317 314 310 309 310 311 309 304 298 296 295 294 294 294 295 297 298 299 300 301 302 303 304 304 304 304 305 306 307 308 309 310 311 312 312 312 312 311 311 311 310 310 310 310 310 309 309 308 308 307 306 305 303 302 301 299 298 296 295 294 293 292 293 294 294
308 307 305 306 307 308 306 302 303 308 320 319 315 309 306 307 312 315 315 316 318 319 317 314 309 305 302 303 302 300 295 293 292 293 292 292 292 293 295 297 299 300 302 302 302 302 302 303 304 305 307 308 309 310 310 310 310 310 309 309 310 310 310 310 310 310 309 308 308 307 306 305 304 303 302 300 299 297 295 294 293 292 291 291 291 291
306 306 306 308 310 312 312 313 314 316 321 321 319 317 315 314 313 308 305 308 312 315 315 314 310 304 295 291 290 293 295 293 292 293 294 293 291 291 293 295 297 299 300 299 298 298 299 301 302 304 305 306 307 307 308 308 308 308 308 309 309 310 310 310 310 309 309 308 307 306 305 305 304 303 301 300 297 295 294 292 291 290 289 289 288 288
306 307 308 308 310 311 311 312 312 312 313 312 308 304 302 305 307 306 304 306 308 310 311 309 308 306 302 293 285 282 291 297 300 300 299 297 295 295 296 297 298 298 298 296 293 293 295 299 301 302 303 304 304 305 305 305 306 307 308 309 309 310 310 310 310 309 309 308 307 306 305 305 304 303 302 300 297 295 293 291 290 289 288 287 286 286
307 309 308 307 307 307 308 308 307 305 303 301 298 296 297 301 306 311 312 313 313 313 313 308 306 305 303 300 298 297 302 305 309 309 307 303 300 300 300 300 299 297 295 293 292 292 294 296 297 298 299 299 300 301 302 304 306 308 308 309 309 309 310 310 310 309 309 308 308 307 307 306 306 305 303 301 299 296 294 292 290 289 287 286 285 284
306 306 304 303 302 302 302 302 302 301 299 295 294 296 304 308 313 316 316 315 316 317 318 316 314 312 306 304 309 317 321 315 312 310 308 305 305 305 304 302 300 298 294 291 290 292 294 293 293 293 295 296 299 300 302 305 307 308 308 308 309 309 309 309 309 309 309 309 308 308 308 308 308 306 304 303 302 300 299 296 294 290 287 285 283 282
301 301 298 299 299 298 296 294 292 292 292 294 295 298 304 310 313 316 315 315 316 317 318 318 318 316 314 314 319 328 331 319 312 308 305 302 304 305 303 298 296 295 293 290 289 291 293 293 293 293 293 296 299 302 304 306 307 307 308 308 308 308 309 309 309 309 309 308 309 309 309 308 307 306 305 304 304 304 303 301 298 295 291 287 284 281
296 295 295 294 294 293 294 291 290 290 290 294 298 301 302 305 309 312 313 315 316 317 316 315 313 311 311 311 315 324 332 316 309 305 303 301 301 303 301 293 289 288 289 288 288 290 291 291 291 292 293 298 300 302 304 305 306 306 307 307 307 308 308 308 308 308 307 308 308 307 306 305 304 304 304 304 305 305 305 303 302 299 295 290 286 282
294 293 293 292 291 292 293 291 293 294 295 299 303 304 304 305 308 312 312 313 314 313 313 311 307 304 301 300 305 312 319 310 304 302 302 301 301 301 299 291 287 286 287 288 290 292 291 288 288 290 293 298 300 302 303 304 305 306 306 306 306 307 307 307 306 306 306 305 305 303 302 301 301 302 302 303 303 303 303 303 303 302 299 295 290 285
291 288 286 287 290 291 291 289 290 293 298 303 304 304 303 307 312 315 313 312 310 308 306 302 300 298 296 295 298 303 311 309 304 300 300 298 297 297 296 291 289 288 288 289 290 291 290 285 286 290 294 297 299 301 302 303 304 304 305 305 305 305 305 305 305 305 304 303 302 300 299 299 300 301 301 302 301 300 300 300 301 301 301 299 294 289
283 280 271 271 279 285 287 286 289 295 301 303 301 300 302 309 312 312 312 310 307 304 301 296 293 293 294 293 295 301 312 311 306 301 296 292 291 291 293 290 289 288 289 289 290 290 288 284 283 287 292 297 299 301 302 302 302 303 303 303 303 303 303 303 304 304 304 303 302 300 300 300 301 302 302 301 300 299 299 299 299 300 300 299 296 291
271 271 263 256 261 270 277 282 288 294 297 299 300 303 309 314 312 310 310 308 304 301 297 292 290 289 289 290 293 298 307 301 295 291 290 287 287 288 292 291 289 287 288 290 292 293 290 287 286 288 292 297 299 300 300 300 300 300 300 300 300 301 301 302 302 303 303 303 302 302 301 302 302 302 302 300 299 299 298 298 298 299 299 299 297 294
255 260 262 258 260 265 273 279 283 286 287 289 294 299 306 308 307 305 305 303 299 296 292 288 286 285 285 288 293 296 294 282 277 278 282 284 287 290 296 295 292 289 288 293 297 299 299 296 294 293 294 296 297 298 298 298 298 298 298 298 298 298 299 300 301 302 303 303 303 303 303 303 302 302 300 300 299 299 299 299 298 298 298 299 298 296
250 255 260 262 265 269 274 279 284 288 290 292 294 295 296 295 294 294 294 294 292 291 288 288 288 288 289 291 292 292 288 279 275 277 280 283 287 291 298 299 296 292 291 296 301 304 302 299 296 294 293 295 296 296 296 297 297 296 296 296 296 297 298 299 300 301 302 303 303 303 303 302 301 300 299 299 299 299 299 299 298 298 298 298 298 296
276 279 284 291 299 303 305 305 305 306 308 307 306 304 301 297 295 294 293 291 289 287 288 291 293 295 296 296 295 293 293 290 289 287 288 287 288 290 295 298 297 295 296 300 302 303 300 296 295 294 293 293 294 294 295 295 295 294 294 295 295 296 298 299 300 301 302 302 302 302 302 302 301 300 299 299 299 299 300 299 299 298 298 298 298 297
328 327 324 321 318 316 315 313 312 312 312 311 310 308 306 303 301 298 295 293 292 293 295 295 295 295 296 297 297 298 303 306 304 296 290 289 289 290 293 298 299 298 299 300 300 299 296 295 296 297 297 293 292 292 292 292 292 293 293 295 296 297 298 299 300 301 301 302 302 302 302 302 301 300 299 299 299 299 300 300 299 298 298 298 298 296
331 326 322 320 318 316 314 314 313 312 312 311 310 309 307 307 304 300 297 299 301 301 299 297 297 297 298 298 299 302 309 311 306 296 289 287 288 290 295 302 303 301 298 296 295 294 294 296 298 299 297 291 288 288 289 290 291 293 294 296 297 298 299 299 299 300 300 301 301 302 302 302 301 300 299 299 299 300 300 300 300 299 299 299 298 294
327 323 320 318 316 314 314 314 314 314 314 313 311 310 310 310 306 303 301 304 305 302 297 299 302 304 306 305 304 304 307 305 300 294 291 289 288 290 298 303 300 297 295 294 294 295 295 295 296 295 291 287 285 285 287 290 293 295 296 297 297 297 297 297 297 298 299 300 301 302 302 302 301 300 300 300 300 300 300 300 300 300 300 298 294 288
324 320 318 316 315 315 316 316 315 314 313 312 313 313 315 312 305 300 300 308 311 310 307 308 308 308 306 304 303 301 300 297 296 297 305 298 292 291 298 299 297 296 298 300 300 298 294 290 288 287 286 287 288 289 290 294 295 296 296 296 296 295 295 295 296 297 298 299 300 301 302 302 301 301 300 300 300 300 300 300 300 300 299 295 289 284
321 318 316 314 314 314 314 311 308 307 308 311 313 315 314 307 297 295 303 321 329 325 318 313 309 305 303 302 300 297 292 294 301 313 321 306 296 294 299 299 301 306 315 313 308 302 296 291 286 284 286 290 292 293 293 294 294 294 293 294 294 293 293 294 295 296 298 299 300 301 301 301 301 301 301 301 301 301 301 301 301 300 297 291 286 283
316 315 311 308 307 305 303 297 295 297 302 308 310 311 307 300 296 304 326 341 340 329 317 309 304 301 299 299 297 295 293 301 315 323 324 307 298 299 307 308 310 314 321 316 309 303 301 299 295 293 293 295 295 294 292 292 291 290 290 291 291 291 292 294 295 297 298 299 299 300 300 300 301 301 301 301 301 301 301 301 301 300 296 291 287 285
311 310 305 300 296 293 291 290 289 290 295 300 302 301 300 304 313 328 339 337 330 318 307 301 297 294 291 287 285 286 291 301 314 321 324 312 305 306 313 311 309 308 307 299 293 292 296 299 302 303 303 300 297 294 291 291 290 288 288 288 288 290 292 295 297 298 298 299 299 299 299 300 300 300 301 301 301 301 301 301 301 301 297 293 291 290
304 301 295 292 289 288 287 286 286 287 290 292 293 296 301 311 317 318 314 310 305 300 296 292 291 289 286 282 280 280 284 293 309 320 327 319 312 307 310 306 303 300 299 291 285 281 282 289 296 301 302 298 296 294 293 292 290 288 286 286 287 289 293 296 297 298 297 297 297 297 298 298 299 300 300 301 301 301 301 301 301 301 300 297 296 297
298 294 289 288 288 287 286 285 284 284 287 289 291 294 297 300 300 298 293 289 286 283 282 283 284 285 286 284 282 281 282 291 308 320 325 317 308 301 302 300 299 298 298 293 289 284 280 283 289 294 296 296 295 293 294 292 291 289 285 283 284 287 291 295 296 295 295 294 294 294 295 296 297 298 299 300 301 301 301 301 301 302 302 301 302 304
298 296 293 291 290 290 290 288 286 285 285 285 284 283 282 281 280 280 278 275 273 271 270 270 273 276 280 282 284 285 287 295 308 314 313 305 299 296 296 295 296 298 297 294 292 290 286 285 287 290 293 295 295 295 293 291 290 289 286 282 281 283 287 290 291 291 292 291 291 290 290 291 293 295 297 299 300 301 301 301 302 302 303 303 305 306
298 299 296 292 290 292 293 293 292 288 285 281 276 273 271 271 271 271 269 268 269 269 269 266 266 266 269 274 279 285 289 295 300 301 299 294 291 291 291 291 294 295 294 293 292 292 290 290 289 290 291 293 295 297 297 296 295 294 291 289 287 286 286 285 285 285 287 287 287 287 288 289 290 291 293 297 299 300 301 301 302 302 302 304 305 306
297 298 296 291 288 289 294 295 295 294 289 286 281 276 272 270 268 266 264 262 264 266 269 268 266 265 265 268 272 277 283 287 289 288 286 283 282 282 283 285 288 290 290 290 291 291 291 290 291 291 290 290 292 296 300 303 303 300 297 297 295 294 291 288 285 282 283 283 284 285 287 288 289 290 292 296 298 300 300 300 300 301 302 304 305 305
300 300 299 294 292 294 298 300 300 300 296 294 290 285 278 271 266 263 262 259 259 261 265 267 267 267 266 268 269 270 273 274 275 275 274 273 271 272 275 280 283 284 282 283 285 286 287 287 289 291 290 289 290 292 297 301 302 301 299 298 297 295 293 292 290 287 285 284 285 286 288 289 289 290 292 295 297 297 297 297 299 300 302 303 303 303
298 299 301 301 301 301 301 301 300 297 294 290 288 286 283 275 268 264 262 262 261 260 261 264 266 268 266 266 266 266 267 267 266 266 265 263 261 263 267 274 278 279 278 276 275 276 277 279 282 285 289 291 292 293 294 295 296 297 299 300 299 298 296 297 297 295 291 289 289 290 291 290 289 289 290 291 292 293 293 295 298 300 302 302 302 302
296 298 300 302 302 300 297 295 294 293 291 289 288 287 286 283 279 275 273 272 272 270 267 265 267 269 269 268 267 266 265 263 261 260 259 256 252 252 256 264 270 275 276 274 271 270 270 273 276 278 281 285 289 292 293 293 294 296 300 302 302 301 302 303 302 298 293 290 290 291 293 292 290 290 289 290 290 290 292 294 298 301 302 303 304 306
298 299 299 299 298 296 293 290 289 287 286 286 286 286 286 287 288 289 288 285 283 280 278 275 274 274 273 270 268 265 262 260 257 254 253 249 247 247 251 257 263 268 272 272 271 269 268 271 274 276 278 281 284 286 287 288 291 295 298 297 296 297 299 300 298 296 294 292 292 293 295 295 295 294 293 292 290 289 290 294 296 298 299 298 300 304
298 299 298 296 295 293 290 287 286 284 283 283 283 284 286 289 292 294 295 295 293 291 289 289 289 288 287 283 277 270 264 258 253 250 249 247 245 245 248 254 258 263 267 270 270 270 268 270 273 276 278 281 283 284 285 287 290 292 293 292 293 295 296 295 295 296 298 298 298 298 298 299 299 298 297 296 294 293 293 292 293 293 295 296 295 295
295 294 292 290 289 287 287 287 286 285 284 284 283 284 285 287 289 292 294 295 295 295 296 295 294 294 294 293 292 288 279 264 254 250 249 248 246 246 248 251 255 258 263 268 271 273 273 272 273 275 277 278 279 281 283 287 290 290 289 289 292 294 295 296 299 301 301 299 300 300 301 302 302 301 300 299 298 297 294 291 289 289 290 291 291 289
289 286 285 284 283 283 283 284 283 284 285 285 287 287 286 282 283 285 288 289 291 292 294 294 293 292 292 294 296 297 296 285 265 252 247 247 246 246 250 252 254 256 258 263 269 275 279 278 277 276 277 277 276 277 279 284 287 289 288 288 287 286 285 291 297 301 301 300 300 302 303 306 307 305 302 300 298 296 293 290 289 288 287 286 285 285
282 282 282 283 285 286 287 287 288 289 290 290 291 290 287 281 280 281 283 285 287 289 290 294 295 296 295 296 299 302 303 302 295 280 260 253 253 254 255 257 258 259 258 259 264 270 276 280 281 282 281 278 275 275 278 282 285 287 287 288 287 285 282 286 290 294 296 300 303 305 307 310 310 308 304 301 300 298 295 294 292 291 289 286 284 283
278 282 285 287 289 290 290 291 292 292 292 291 291 290 286 281 278 277 278 281 284 287 288 292 295 296 296 299 301 304 305 305 305 303 296 279 265 259 259 260 260 260 260 261 263 266 269 274 279 283 285 282 279 276 276 279 282 284 286 287 287 286 285 286 288 290 294 299 303 306 310 312 311 307 304 303 302 301 298 295 292 290 288 286 283 282
286 289 291 292 292 292 292 293 294 295 294 293 292 290 288 283 279 278 277 278 281 286 290 293 292 292 291 295 298 301 303 305 306 307 307 303 298 289 280 273 268 265 266 269 270 270 269 270 273 276 281 283 283 282 279 277 277 278 280 283 285 285 285 286 289 292 295 297 301 305 311 313 311 308 305 304 303 302 300 297 293 288 285 283 282 282
293 294 294 295 295 295 295 295 296 295 294 292 292 291 289 286 285 285 283 283 286 290 293 294 293 290 289 290 292 295 298 300 302 303 304 305 304 302 297 293 288 284 281 280 278 276 273 270 267 267 269 273 277 279 280 278 276 275 276 280 282 284 284 286 290 293 295 296 299 303 309 310 309 307 306 304 303 302 302 301 298 292 286 283 282 283
296 296 295 295 295 295 295 295 295 295 293 292 292 292 290 287 287 287 287 288 289 290 291 291 291 290 290 291 292 295 297 298 298 299 299 301 302 302 301 301 300 298 296 291 286 281 276 270 262 255 250 253 259 267 273 275 275 275 275 277 279 281 284 287 291 295 298 298 300 303 305 304 302 300 301 300 301 301 303 303 301 298 293 289 287 287
296 294 294 294 294 293 293 294 294 293 292 292 292 293 292 289 286 283 280 282 283 283 283 285 287 289 290 292 295 298 300 299 298 297 297 299 301 302 302 304 306 306 304 301 298 294 290 281 267 253 242 241 245 253 265 272 276 277 277 276 277 280 284 288 291 295 298 300 302 303 304 301 298 296 296 297 300 302 304 304 305 305 302 300 298 297
296 295 294 293 292 292 292 292 292 292 291 291 291 292 292 292 289 284 279 280 280 281 282 283 284 286 288 292 296 298 299 299 298 297 297 298 299 301 301 304 307 308 308 307 306 306 305 303 297 283 262 252 250 252 261 271 279 284 284 281 280 281 284 287 291 296 299 301 301 301 300 299 297 296 297 300 302 305 307 308 308 309 309 310 311 310